Tracking 25693 objects as of 30-Jun-2022
HD Live streaming from Space Station
objects crossing your sky now

SL-8 DEB *

Track SL-8 DEB * now!
10-day predictions


NORAD ID: 3931
Int'l Code: 1965-020EV
Perigee: 1,381.7 km
Apogee: 1,687.1 km
Inclination: 56.1 °
Period: 116.6 minutes
Semi major axis: 7905 km
RCS: 0.0346 m2 (small)
Launch date: March 15, 1965
Source: Commonwealth of Independent States (former USSR) (CIS)
Launch site: TYURATAM MISSILE AND SPACE COMPLEX (TTMTR)

Note: This is SATELLITE DEBRIS
aabbcc
Your satellite tracking list
Your tracking list is empty




NASA's NSSDC Master Catalog

Two Line Element Set (TLE):
1 03931U 65020EV  22180.85228733 -.00000103  00000-0 -88482-4 0  9990
2 03931  56.0635  65.5278 0193171 346.2214  86.6149 12.35144070598216
Source of the keplerian elements: AFSPC